Overview Statistics Trail Chart Weather Telemetry Raw packets
 

This is the latest recevied weather packets stored in our database for station/object JF7BTK-10. If no packets are shown the sender has not sent any weather packets the latest 10 day(s).

<< 23 24 25 26 27 28 29 >>
Time Temp. Humidity Pressure Rain* Wind** Luminosity Snow
1788437587 20° C 99% 1002.7 hPa 1.27 mm - - -
1788436686 20° C 99% 1002.9 hPa 1.27 mm - - -
1788435950 20.56° C 99% 1003.1 hPa 1.27 mm - - -
1788435787 20.56° C 99% 1003 hPa 1.27 mm - - -
1788435650 20.56° C 99% 1003.3 hPa 1.27 mm - - -
1788434887 20.56° C 99% 1003.1 hPa 1.27 mm - - -
1788433987 20.56° C 99% 1003.2 hPa 0 mm - - -
1788433087 20.56° C 99% 1003 hPa 0 mm - - -
1788432187 20.56° C 99% 1003 hPa 0 mm - - -
1788431287 20.56° C 99% 1002.9 hPa 0 mm - - -
1788430387 20.56° C 99% 1002.9 hPa 0 mm - - -
1788429487 20.56° C 99% 1002.6 hPa 0 mm - - -
1788428587 20.56° C 99% 1002.4 hPa 0 mm - - -
1788427688 20.56° C 99% 1002.4 hPa 0 mm - - -
1788426786 20.56° C 99% 1002.4 hPa 0 mm - - -
1788425886 21.11° C 99% 1002.5 hPa 0 mm - - -
1788424987 21.11° C 99% 1002.2 hPa 0 mm - - -
1788424087 20.56° C 99% 1002.4 hPa 0.51 mm - - -
1788423188 20.56° C 99% 1002.3 hPa 1.78 mm - - -
1788422288 20.56° C 99% 1002.5 hPa 7.87 mm - - -
1788421387 20.56° C 99% 1002.4 hPa 11.18 mm - - -
1788420488 20.56° C 99% 1002.4 hPa 17.27 mm - - -
1788419588 20.56° C 99% 1002.6 hPa 19.05 mm - - -
1788418687 21.11° C 99% 1002.6 hPa 16 mm - - -
1788417787 21.11° C 99% 1002.5 hPa 12.95 mm - - -

* Rain latest hour (hover to see other rain measurements)
** Current wind speed in m/s (hover to see current wind gust speed)